Regional Weather Roundup
Issued by NWS Kansas City/Pleasant Hill, MO

Home | Current Version | Previous Version | Text Only | Print | Product List | Glossary On
Versions: 1 2 3 4 5 6 7 8 9 10 11 12 13 14 15 16 17 18 19 20 21 22 23 24 25 26 27 28 29 30 31 32 33 34 35 36 37 38 39 40 41 42 43 44 45 46 47 48 49 50
000
ASUS43 KEAX 270511
RWREAX

WEATHER ROUNDUP FOR EASTERN KANSAS AND NORTHWEST MISSOURI
NATIONAL WEATHER SERVICE KANSAS CITY/PLEASANT HILL MO
1200 AM CDT FRI MAR 27 2015

KSZ040-057-103>105-MOZ028-029-037-043-270600-
...KANSAS CITY METROPOLITAN AREA...

CITY           SKY/WX    TMP DP  RH WIND       PRES   REMARKS
K.C. INTL      LGT RAIN  38  35  89 N13       30.15R WCI  30
K.C. DOWNTOWN  LGT RAIN  41  35  79 N14       30.15R WCI  33
LEES SUMMIT    LGT RAIN  39  34  82 N17G25    30.15R WCI  30
OLATHE - IXD   LGT RAIN  38  35  89 N10       30.16R WCI  31
OLATHE - OJC   LGT RAIN  39  36  89 N13       30.14R WCI  31
LAWRENCE       LGT RAIN  38  35  89 N12       30.16R WCI  30

$$

MOZ001>008-011>017-020>025-030>033-038>040-044>046-053-054-270600-
...NORTHERN AND CENTRAL MISSOURI...

CITY           SKY/WX    TMP DP  RH WIND       PRES   REMARKS
ST. JOSEPH     MOCLDY    36  33  89 N8        30.18S WCI  30
MOSBY          CLOUDY    37  34  87 N16       30.16R WCI  28
WARRENSBURG    CLOUDY    43  32  65 N17G23    30.12R WCI  35
WHITEMAN AFB   LGT RAIN  43  31  63 N20G26    30.10R WCI  35
CLINTON        MOCLDY    45  34  65 N3        30.11R
SEDALIA        CLOUDY    44  31  60 NW3       30.10R
WARSAW         NOT AVBL
MARSHALL       CLOUDY    45  34  65 N15G24    30.13R
CHILLICOTHE      N/A     38  32  79 N6        30.16S WCI  33
KIRKSVILLE     CLOUDY    37  29  72 N12       30.13R WCI  29

$$

MOZ041-047>049-056>058-063>065-088>090-097-270600-
...EASTERN AND SOUTHERN MISSOURI...

CITY           SKY/WX    TMP DP  RH WIND       PRES   REMARKS
ST. LOUIS INTL MOCLDY    40  28  62 NW3       30.06F
SPIRIT OF STL  FAIR      34  31  88 CALM      30.06F
COLUMBIA       CLOUDY    41  31  67 NW7       30.07F
JEFFERSON CITY CLOUDY    41  32  70 NW5       30.08F
HANNIBAL       CLOUDY    41  23  48 N6        30.11S
ROLLA          CLOUDY    41  29  62 MISG      30.04F
LEBANON        MOCLDY    41  28  60 CALM      30.07R
OSAGE BEACH    CLOUDY    39  30  70 CALM      30.08R
SPRINGFIELD    CLOUDY    42  29  59 CALM      30.06S
BRANSON        CLEAR     41  28  60 CALM      30.06S
NEVADA         RAIN      43  36  75 NW10      30.15R
JOPLIN         LGT RAIN  46  33  60 W13       30.11R
WEST PLAINS    CLEAR     34  27  75 MISG      30.05F

$$

IAZ060-094-KSZ022-034>040-054-083-096-NEZ052-066-093-270600-
...KANSAS...SOUTHEAST NEBRASKA AND IOWA...

CITY           SKY/WX    TMP DP  RH WIND       PRES   REMARKS
TOPEKA         LGT RAIN  38  35  89 NE15      30.18R WCI  29
MANHATTAN      CLOUDY    38  35  89 NE15      30.18R WCI  29
EMPORIA        CLOUDY    40  38  93 NE13      30.10S WCI  32
CHANUTE        MOCLDY    43  38  82 NE12      30.10R
WICHITA        FAIR      43  33  68 W9        30.03S
OMAHA          PTCLDY    32  30  92 N7        30.21S WCI  26
LINCOLN        CLEAR     33  31  92 N8        30.23S WCI  26
FALLS CITY     CLOUDY    36  32  85 N7        30.19R WCI  30
LAMONI         CLOUDY    34  32  92 N6        30.15R WCI  29
DES MOINES     MOCLDY    33  20  58 N17       30.19R WCI  22

$$



USA.gov is the U.S. government's official web portal to all federal, state and local government web resources and services.